This demonstration page uses our WeatherBlox Daily Observations layout. Learn more.

Hourly Observations for January 22, 2019

Temp ( °F °C ) Dew Point ( °F °C ) Humidity (%) Winds ( mph kmh ) Pressure ( in mb ) Visibility ( mi km ) Precip ( " mm )
12:15 am 00:15 Cloudy with Mist and Fog 25 -4.1 23 -5.1 93 93 N 6 9 29.83 1010 5 8.04672 0 0
12:35 am 00:35 Cloudy with Mist and Fog 24 -4.2 23 -5.2 93 93 NE 5 7 29.85 1011 5 8.04672 0 0
12:55 am 00:55 Cloudy 24 -4.2 23 -5.2 93 93 NNE 5 7 29.85 1011 7 11.265408 0 0
1:15 am 01:15 Cloudy 25 -4.1 23 -5.1 93 93 NNE 6 9 29.85 1011 7 11.265408 0 0
1:35 am 01:35 Cloudy 24 -4.3 22 -5.4 92 92 N 6 9 29.88 1012 7 11.265408 0 0
1:55 am 01:55 Cloudy 24 -4.4 22 -5.4 93 93 N 6 9 29.88 1012 7 11.265408 0 0
2:15 am 02:15 Cloudy 24 -4.5 22 -5.5 93 93 N 7 11 29.88 1012 7 11.265408 0 0
2:35 am 02:35 Cloudy with Mist and Fog 24 -4.5 22 -5.6 92 92 N 6 9 29.94 1014 5 8.04672 0 0
2:55 am 02:55 Cloudy with Mist and Fog 24 -4.5 22 -5.5 93 93 N 7 11 29.94 1014 5 8.04672 0 0
3:15 am 03:15 Cloudy with Mist and Fog 24 -4.4 22 -5.4 93 93 N 6 9 29.94 1014 4 6.437376 0 0
3:35 am 03:35 Cloudy with Mist and Fog 24 -4.3 22 -5.3 93 93 N 7 11 29.94 1014 3 4.828032 0 0
3:55 am 03:55 Cloudy with Mist and Fog 24 -4.3 22 -5.3 93 93 N 5 7 29.94 1014 4 6.437376 0 0
4:15 am 04:15 Cloudy 25 -4 23 -5 93 93 N 7 11 29.91 1013 7 11.265408 0 0
4:35 am 04:35 Cloudy 26 -3.6 24 -4.5 94 94 N 9 15 29.91 1013 7 11.265408 0 0
4:55 am 04:55 Cloudy 24 -4.3 22 -5.5 91 91 N 13 20 29.97 1015 10 16.09344 0 0
5:15 am 05:15 Cloudy 23 -4.9 21 -6.1 91 91 N 14 22 30 1016 10 16.09344 0 0
5:35 am 05:35 Cloudy 22 -5.5 20 -6.8 91 91 N 14 22 30 1016 10 16.09344 0 0
5:55 am 05:55 Cloudy 21 -6.2 18 -7.7 89 89 N 13 20 30.03 1017 10 16.09344 0 0
6:15 am 06:15 Cloudy 20 -6.5 17 -8.3 87 87 N 14 22 30.06 1018 10 16.09344 0 0
6:35 am 06:35 Cloudy 20 -6.7 16 -8.7 86 86 N 13 20 30.09 1019 10 16.09344 0 0
6:55 am 06:55 Cloudy 19 -7 15 -9.3 84 84 N 14 22 30.09 1019 10 16.09344 0 0
7:15 am 07:15 Cloudy 19 -7.3 15 -9.5 84 84 N 12 19 30.09 1019 10 16.09344 0 0
7:35 am 07:35 Mostly Cloudy 18 -7.7 13 -10.3 82 82 N 13 20 30.09 1019 10 16.09344 0 0
7:55 am 07:55 Partly Cloudy 18 -7.7 13 -10.3 82 82 N 13 20 30.12 1020 10 16.09344 0 0
8:15 am 08:15 Mostly Cloudy 18 -7.7 13 -10.3 82 82 NNW 12 19 30.12 1020 10 16.09344 0 0
8:35 am 08:35 Cloudy 18 -7.6 14 -10.1 82 82 N 14 22 30.12 1020 7 11.265408 0 0
8:55 am 08:55 Cloudy with Light Snow 18 -7.7 13 -10.4 81 81 N 15 24 30.15 1021 3 4.828032 0 0
9:15 am 09:15 Cloudy with Light Snow 18 -7.8 13 -10.5 81 81 NNW 14 22 30.18 1022 5 8.04672 0 0
9:35 am 09:35 Cloudy with Light Snow 18 -8 13 -10.7 81 81 NNW 15 24 30.21 1023 5 8.04672 0 0
9:50 am 09:50 Cloudy with Light Snow 17 -8.2 11 -11.5 77 77 N 14 22 30.21 1023 4 6.437376 0 0
3:55 pm 15:55 Cloudy with Light Snow 21 -6.2 15 -9.2 80 80 N 17 28 30.21 1023 7 11.265408 0 0
4:15 pm 16:15 Cloudy 20 -6.4 14 -10.1 75 75 N 22 35 30.21 1023 10 16.09344 0 0
4:35 pm 16:35 Cloudy 20 -6.5 14 -10 76 76 N 18 30 30.21 1023 10 16.09344 0 0
4:55 pm 16:55 Windy with Snow Likely 20 -6.5 14 -9.9 77 77 N 20 31 30.21 1023 10 16.09344 0 0
5:15 pm 17:15 Cloudy with Light Snow 20 -6.5 15 -9.6 79 79 N 15 24 30.21 1023 10 16.09344 0 0
5:35 pm 17:35 Cloudy 21 -6.2 15 -9.4 78 78 NNW 13 20 30.21 1023 10 16.09344 0 0
5:55 pm 17:55 Cloudy 21 -6 16 -9.1 79 79 NNW 14 22 30.21 1023 10 16.09344 0 0
6:15 pm 18:15 Cloudy 22 -5.6 16 -9 77 77 N 16 26 30.21 1023 10 16.09344 0 0
6:35 pm 18:35 Cloudy 22 -5.6 16 -8.9 78 78 N 16 26 30.21 1023 10 16.09344 0 0
6:55 pm 18:55 Cloudy 22 -5.6 16 -8.7 79 79 N 15 24 30.24 1024 10 16.09344 0 0
7:15 pm 19:15 Cloudy 22 -5.5 17 -8.5 80 80 N 15 24 30.24 1024 10 16.09344 0 0
7:35 pm 19:35 Cloudy 23 -5.2 17 -8.5 78 78 N 16 26 30.24 1024 10 16.09344 0 0
7:55 pm 19:55 Cloudy 23 -5.2 17 -8.6 77 77 N 20 31 30.24 1024 10 16.09344 0 0
8:15 pm 20:15 Cloudy 23 -5.2 17 -8.5 78 78 N 16 26 30.24 1024 10 16.09344 0 0
8:35 pm 20:35 Cloudy 23 -5.2 17 -8.4 78 78 NNW 12 19 30.24 1024 10 16.09344 0 0
8:55 pm 20:55 Cloudy 23 -5.1 17 -8.1 80 80 NNW 12 19 30.24 1024 10 16.09344 0 0
9:15 pm 21:15 Cloudy 23 -5 18 -8 80 80 N 12 19 30.24 1024 10 16.09344 0 0
9:35 pm 21:35 Cloudy 23 -4.8 18 -7.7 80 80 NNW 10 17 30.18 1022 10 16.09344 0 0
9:55 pm 21:55 Cloudy 23 -4.8 18 -7.6 81 81 NNW 12 19 30.18 1022 10 16.09344 0 0
10:15 pm 22:15 Cloudy 24 -4.7 19 -7.5 81 81 NNW 8 13 30.18 1022 10 16.09344 0 0
10:35 pm 22:35 Cloudy 24 -4.7 19 -7.5 81 81 NNW 9 15 30.18 1022 10 16.09344 0 0
10:55 pm 22:55 Cloudy 24 -4.6 19 -7.3 82 82 NNW 12 19 30.21 1023 10 16.09344 0 0
11:15 pm 23:15 Mostly Cloudy 23 -5 17 -8.2 79 79 N 10 17 30.24 1024 10 16.09344 0 0
11:35 pm 23:35 Partly Cloudy 21 -6.3 16 -9.1 81 81 NNW 8 13 30.21 1023 10 16.09344 0 0
11:55 pm 23:55 Clear 17 -8.5 13 -10.8 84 84 NW 9 15 30.24 1024 10 16.09344 0 0

Powered by AerisWeather